Time,TemperatureF,DewpointF,PressureIn,WindDirection,WindDirectionDegrees,WindSpeedMPH,WindSpeedGustMPH,Humidity,HourlyPrecipIn,Conditions,Clouds,dailyrainin,SoftwareType,DateUTC
2013-11-19 00:01:00,47.6,33.6,30.10,NNE,28,6.0,16.0,58,0.00,,SKC,0.00,VWS V13.00,2013-11-19 06:01:00,
2013-11-19 00:06:00,47.6,33.6,30.10,NE,35,8.0,15.0,58,0.00,,SKC,0.00,VWS V13.00,2013-11-19 06:06:00,
2013-11-19 00:11:00,47.5,33.0,30.10,NNE,28,9.0,15.0,57,0.00,,SKC,0.00,VWS V13.00,2013-11-19 06:11:00,
2013-11-19 00:16:00,47.4,33.0,30.10,NE,39,6.0,15.0,57,0.00,,SKC,0.00,VWS V13.00,2013-11-19 06:16:00,
2013-11-19 00:21:00,47.4,32.5,30.10,NNE,25,10.0,15.0,56,0.00,,SKC,0.00,VWS V13.00,2013-11-19 06:21:00,
2013-11-19 00:26:00,47.2,32.8,30.10,NE,38,10.0,15.0,57,0.00,,SKC,0.00,VWS V13.00,2013-11-19 06:26:00,
2013-11-19 00:31:00,47.1,32.7,30.09,NNE,18,6.0,15.0,57,0.00,,SKC,0.00,VWS V13.00,2013-11-19 06:31:00,
2013-11-19 00:36:00,46.9,32.5,30.09,North,5,5.0,12.0,57,0.00,,SKC,0.00,VWS V13.00,2013-11-19 06:36:00,
2013-11-19 00:41:00,47.0,32.6,30.09,NNE,24,11.0,19.0,57,0.00,,SKC,0.00,VWS V13.00,2013-11-19 06:41:00,
2013-11-19 00:46:00,47.1,32.7,30.09,NE,40,13.0,19.0,57,0.00,,SKC,0.00,VWS V13.00,2013-11-19 06:46:00,
2013-11-19 00:51:00,47.0,32.6,30.09,NNE,26,7.0,19.0,57,0.00,,SKC,0.00,VWS V13.00,2013-11-19 06:51:00,
2013-11-19 00:55:00,46.9,32.9,30.09,North,360,13.0,20.0,58,0.00,,SKC,0.00,VWS V13.00,2013-11-19 06:55:00,
2013-11-19 01:00:00,46.7,32.7,30.09,NNE,30,5.0,20.0,58,0.00,,SKC,0.00,VWS V13.00,2013-11-19 07:00:00,
2013-11-19 01:05:00,46.6,32.6,30.09,NNE,24,11.0,19.0,58,0.00,,SKC,0.00,VWS V13.00,2013-11-19 07:05:00,
2013-11-19 01:10:00,46.5,32.5,30.09,North,5,8.0,19.0,58,0.00,,SKC,0.00,VWS V13.00,2013-11-19 07:10:00,
2013-11-19 01:15:00,46.3,32.8,30.09,North,360,7.0,19.0,59,0.00,,SKC,0.00,VWS V13.00,2013-11-19 07:15:00,
2013-11-19 01:20:00,46.0,32.1,30.09,NNE,30,9.0,19.0,58,0.00,,SKC,0.00,VWS V13.00,2013-11-19 07:20:00,
2013-11-19 01:25:00,46.1,32.2,30.09,North,9,9.0,19.0,58,0.00,,SKC,0.00,VWS V13.00,2013-11-19 07:25:00,
2013-11-19 01:30:00,46.0,31.6,30.09,ENE,58,7.0,19.0,57,0.00,,SKC,0.00,VWS V13.00,2013-11-19 07:30:00,
2013-11-19 01:35:00,46.0,31.6,30.10,NNE,12,8.0,14.0,57,0.00,,SKC,0.00,VWS V13.00,2013-11-19 07:35:00,
2013-11-19 01:40:00,45.9,31.5,30.09,NNE,26,4.0,14.0,57,0.00,,SKC,0.00,VWS V13.00,2013-11-19 07:40:00,
2013-11-19 01:45:00,45.7,31.4,30.09,NNE,27,6.0,14.0,57,0.00,,SKC,0.00,VWS V13.00,2013-11-19 07:45:00,
2013-11-19 01:50:00,45.5,31.2,30.10,NNE,18,4.0,14.0,57,0.00,,SKC,0.00,VWS V13.00,2013-11-19 07:50:00,
2013-11-19 01:55:00,45.6,30.8,30.10,NNE,32,9.0,15.0,56,0.00,,SKC,0.00,VWS V13.00,2013-11-19 07:55:00,
2013-11-19 02:00:00,45.6,30.8,30.10,NE,42,8.0,15.0,56,0.00,,SKC,0.00,VWS V13.00,2013-11-19 08:00:00,
2013-11-19 02:05:00,45.5,30.3,30.10,NE,38,8.0,13.0,55,0.00,,SKC,0.00,VWS V13.00,2013-11-19 08:05:00,
2013-11-19 02:10:00,45.3,30.5,30.10,NNE,32,4.0,13.0,56,0.00,,SKC,0.00,VWS V13.00,2013-11-19 08:10:00,
2013-11-19 02:15:00,45.0,30.3,30.10,NNE,12,8.0,13.0,56,0.00,,SKC,0.00,VWS V13.00,2013-11-19 08:15:00,
2013-11-19 02:20:00,45.0,30.3,30.10,NNE,22,14.0,14.0,56,0.00,,SKC,0.00,VWS V13.00,2013-11-19 08:20:00,
2013-11-19 02:25:00,45.0,29.8,30.10,NE,37,11.0,16.0,55,0.00,,SKC,0.00,VWS V13.00,2013-11-19 08:25:00,
2013-11-19 02:30:00,44.9,30.2,30.10,NE,37,6.0,16.0,56,0.00,,SKC,0.00,VWS V13.00,2013-11-19 08:30:00,
2013-11-19 02:35:00,44.8,29.6,30.10,NE,42,7.0,15.0,55,0.00,,SKC,0.00,VWS V13.00,2013-11-19 08:35:00,
2013-11-19 02:40:00,44.7,30.0,30.11,NNE,26,9.0,15.0,56,0.00,,SKC,0.00,VWS V13.00,2013-11-19 08:40:00,
2013-11-19 02:45:00,44.8,29.6,30.11,NNE,27,11.0,15.0,55,0.00,,SKC,0.00,VWS V13.00,2013-11-19 08:45:00,
2013-11-19 02:50:00,44.7,30.0,30.11,NE,35,10.0,15.0,56,0.00,,SKC,0.00,VWS V13.00,2013-11-19 08:50:00,
2013-11-19 02:55:00,44.6,29.5,30.11,NNE,16,6.0,15.0,55,0.00,,SKC,0.00,VWS V13.00,2013-11-19 08:55:00,
2013-11-19 03:00:00,44.5,29.8,30.11,NE,36,6.0,15.0,56,0.00,,SKC,0.00,VWS V13.00,2013-11-19 09:00:00,
2013-11-19 03:05:00,44.2,30.0,30.11,NNE,20,6.0,11.0,57,0.00,,SKC,0.00,VWS V13.00,2013-11-19 09:05:00,
2013-11-19 03:10:00,44.0,29.8,30.11,NNE,24,8.0,14.0,57,0.00,,SKC,0.00,VWS V13.00,2013-11-19 09:10:00,
2013-11-19 03:15:00,43.9,29.7,30.11,NNE,29,9.0,14.0,57,0.00,,SKC,0.00,VWS V13.00,2013-11-19 09:15:00,
2013-11-19 03:20:00,43.9,29.2,30.11,NNE,24,8.0,14.0,56,0.00,,SKC,0.00,VWS V13.00,2013-11-19 09:20:00,
2013-11-19 03:25:00,43.8,29.1,30.11,NE,38,5.0,14.0,56,0.00,,SKC,0.00,VWS V13.00,2013-11-19 09:25:00,
2013-11-19 03:30:00,43.7,29.5,30.11,NNE,12,6.0,16.0,57,0.00,,SKC,0.00,VWS V13.00,2013-11-19 09:30:00,
2013-11-19 03:35:00,43.5,29.3,30.11,NE,49,6.0,10.0,57,0.00,,SKC,0.00,VWS V13.00,2013-11-19 09:35:00,
2013-11-19 03:40:00,43.3,29.1,30.11,NE,39,9.0,14.0,57,0.00,,SKC,0.00,VWS V13.00,2013-11-19 09:40:00,
2013-11-19 03:45:00,43.2,29.9,30.11,NE,47,8.0,14.0,59,0.00,,SKC,0.00,VWS V13.00,2013-11-19 09:45:00,
2013-11-19 03:50:00,43.1,29.3,30.11,NNE,28,7.0,14.0,58,0.00,,SKC,0.00,VWS V13.00,2013-11-19 09:50:00,
2013-11-19 03:55:00,42.9,29.2,30.11,NE,41,8.0,14.0,58,0.00,,SKC,0.00,VWS V13.00,2013-11-19 09:55:00,
2013-11-19 04:00:00,42.7,29.4,30.11,NE,46,5.0,14.0,59,0.00,,SKC,0.00,VWS V13.00,2013-11-19 10:00:00,
2013-11-19 04:05:00,42.5,29.6,30.11,NE,44,8.0,10.0,60,0.00,,SKC,0.00,VWS V13.00,2013-11-19 10:05:00,
2013-11-19 04:10:00,42.2,29.3,30.12,NE,47,5.0,10.0,60,0.00,,SKC,0.00,VWS V13.00,2013-11-19 10:10:00,
2013-11-19 04:15:00,42.0,29.1,30.12,NE,42,6.0,10.0,60,0.00,,SKC,0.00,VWS V13.00,2013-11-19 10:15:00,
2013-11-19 04:20:00,41.9,29.5,30.12,NE,55,8.0,10.0,61,0.00,,SKC,0.00,VWS V13.00,2013-11-19 10:20:00,
2013-11-19 04:25:00,41.8,29.0,30.12,NNE,32,7.0,10.0,60,0.00,,SKC,0.00,VWS V13.00,2013-11-19 10:25:00,
2013-11-19 04:30:00,41.7,29.7,30.12,NE,50,4.0,10.0,62,0.00,,SKC,0.00,VWS V13.00,2013-11-19 10:30:00,
2013-11-19 04:35:00,41.6,29.2,30.12,NE,42,4.0,6.0,61,0.00,,SKC,0.00,VWS V13.00,2013-11-19 10:35:00,
2013-11-19 04:40:00,41.5,29.5,30.12,NE,48,5.0,8.0,62,0.00,,SKC,0.00,VWS V13.00,2013-11-19 10:40:00,
2013-11-19 04:45:00,41.2,29.2,30.12,NE,44,4.0,8.0,62,0.00,,SKC,0.00,VWS V13.00,2013-11-19 10:45:00,
2013-11-19 04:50:00,41.0,29.4,30.13,NE,41,4.0,8.0,63,0.00,,SKC,0.00,VWS V13.00,2013-11-19 10:50:00,
2013-11-19 04:55:00,40.9,29.7,30.12,NE,36,6.0,8.0,64,0.00,,SKC,0.00,VWS V13.00,2013-11-19 10:55:00,
2013-11-19 05:00:00,40.8,29.6,30.12,NNE,29,7.0,10.0,64,0.00,,SKC,0.00,VWS V13.00,2013-11-19 11:00:00,
2013-11-19 05:05:00,40.8,30.0,30.13,NE,41,5.0,8.0,65,0.00,,SKC,0.00,VWS V13.00,2013-11-19 11:05:00,
2013-11-19 05:10:00,40.8,30.0,30.13,NE,52,8.0,9.0,65,0.00,,SKC,0.00,VWS V13.00,2013-11-19 11:10:00,
2013-11-19 05:15:00,40.8,30.0,30.13,NE,44,7.0,10.0,65,0.00,,SKC,0.00,VWS V13.00,2013-11-19 11:15:00,
2013-11-19 05:20:00,40.9,29.7,30.13,NE,42,7.0,10.0,64,0.00,,SKC,0.00,VWS V13.00,2013-11-19 11:20:00,
2013-11-19 05:25:00,40.9,29.7,30.14,NNE,25,6.0,10.0,64,0.00,,SKC,0.00,VWS V13.00,2013-11-19 11:25:00,
2013-11-19 05:30:00,40.9,29.7,30.14,NE,41,6.0,10.0,64,0.00,,SKC,0.00,VWS V13.00,2013-11-19 11:30:00,
2013-11-19 05:35:00,40.7,29.9,30.14,NE,40,5.0,8.0,65,0.00,,SKC,0.00,VWS V13.00,2013-11-19 11:35:00,
2013-11-19 05:40:00,40.6,29.8,30.14,NE,47,5.0,8.0,65,0.00,,SKC,0.00,VWS V13.00,2013-11-19 11:40:00,
2013-11-19 05:45:00,40.3,29.9,30.14,NNE,30,6.0,8.0,66,0.00,,SKC,0.00,VWS V13.00,2013-11-19 11:45:00,
2013-11-19 05:50:00,40.1,30.0,30.14,NE,38,3.0,8.0,67,0.00,,SKC,0.00,VWS V13.00,2013-11-19 11:50:00,
2013-11-19 05:55:00,39.9,29.9,30.14,NE,49,7.0,8.0,67,0.00,,SKC,0.00,VWS V13.00,2013-11-19 11:55:00,
2013-11-19 06:00:00,39.7,30.0,30.14,NE,36,6.0,8.0,68,0.00,,SKC,0.00,VWS V13.00,2013-11-19 12:00:00,
2013-11-19 06:05:00,39.7,30.0,30.14,NNE,24,5.0,8.0,68,0.00,,SKC,0.00,VWS V13.00,2013-11-19 12:05:00,
2013-11-19 06:10:00,39.8,29.8,30.15,NE,50,1.0,8.0,67,0.00,,SKC,0.00,VWS V13.00,2013-11-19 12:10:00,
2013-11-19 06:15:00,39.7,30.0,30.16,NNE,13,4.0,8.0,68,0.00,,SKC,0.00,VWS V13.00,2013-11-19 12:15:00,
2013-11-19 06:20:00,39.5,29.8,30.16,NE,36,4.0,8.0,68,0.00,,SKC,0.00,VWS V13.00,2013-11-19 12:20:00,
2013-11-19 06:25:00,39.4,30.1,30.16,NE,49,1.0,8.0,69,0.00,,SKC,0.00,VWS V13.00,2013-11-19 12:25:00,
2013-11-19 06:30:00,38.9,30.0,30.16,ENE,58,2.0,8.0,70,0.00,,SKC,0.00,VWS V13.00,2013-11-19 12:30:00,
2013-11-19 06:35:00,38.6,29.7,30.16,NNE,23,5.0,5.0,70,0.00,,SKC,0.00,VWS V13.00,2013-11-19 12:35:00,
2013-11-19 06:40:00,38.4,29.8,30.16,NNE,21,6.0,7.0,71,0.00,,SKC,0.00,VWS V13.00,2013-11-19 12:40:00,
2013-11-19 06:45:00,38.7,29.8,30.16,ENE,63,2.0,7.0,70,0.00,,SKC,0.00,VWS V13.00,2013-11-19 12:45:00,
2013-11-19 06:50:00,38.8,29.9,30.17,NE,36,4.0,7.0,70,0.00,,SKC,0.00,VWS V13.00,2013-11-19 12:50:00,
2013-11-19 06:55:00,38.8,29.9,30.17,ENE,61,0.0,7.0,70,0.00,,SKC,0.00,VWS V13.00,2013-11-19 12:55:00,
2013-11-19 07:00:00,38.7,29.8,30.17,NE,53,2.0,7.0,70,0.00,,SKC,0.00,VWS V13.00,2013-11-19 13:00:00,
2013-11-19 07:05:00,39.4,30.1,30.17,NNE,29,1.0,4.0,69,0.00,,SKC,0.00,VWS V13.00,2013-11-19 13:05:00,
2013-11-19 07:10:00,40.1,30.4,30.17,NE,35,1.0,4.0,68,0.00,,SKC,0.00,VWS V13.00,2013-11-19 13:10:00,
2013-11-19 07:15:00,40.8,31.1,30.17,NE,34,0.0,4.0,68,0.00,,SKC,0.00,VWS V13.00,2013-11-19 13:15:00,
2013-11-19 07:20:00,41.3,30.4,30.18,NE,36,2.0,4.0,65,0.00,,SKC,0.00,VWS V13.00,2013-11-19 13:20:00,
2013-11-19 07:25:00,41.8,30.5,30.18,NNE,28,5.0,6.0,64,0.00,,SKC,0.00,VWS V13.00,2013-11-19 13:25:00,
2013-11-19 07:30:00,42.2,30.9,30.17,NE,48,4.0,8.0,64,0.00,,SKC,0.00,VWS V13.00,2013-11-19 13:30:00,
2013-11-19 07:35:00,42.4,30.7,30.17,ENE,57,8.0,8.0,63,0.00,,SKC,0.00,VWS V13.00,2013-11-19 13:35:00,
2013-11-19 07:40:00,42.7,30.6,30.17,NNE,19,4.0,9.0,62,0.00,,SKC,0.00,VWS V13.00,2013-11-19 13:40:00,
2013-11-19 07:45:00,43.1,30.6,30.17,NE,35,6.0,9.0,61,0.00,,SKC,0.00,VWS V13.00,2013-11-19 13:45:00,
2013-11-19 07:50:00,43.2,29.9,30.18,NE,46,5.0,10.0,59,0.00,,SKC,0.00,VWS V13.00,2013-11-19 13:50:00,
2013-11-19 07:55:00,43.5,31.4,30.18,ENE,63,5.0,10.0,62,0.00,,SKC,0.00,VWS V13.00,2013-11-19 13:55:00,
2013-11-19 08:00:00,43.8,30.8,30.18,NE,37,9.0,12.0,60,0.00,,SKC,0.00,VWS V13.00,2013-11-19 14:00:00,
2013-11-19 08:04:00,44.0,30.2,30.18,NNE,15,8.0,13.0,58,0.00,,SKC,0.00,VWS V13.00,2013-11-19 14:04:00,
2013-11-19 08:09:00,44.2,31.2,30.18,NNE,22,6.0,13.0,60,0.00,,SKC,0.00,VWS V13.00,2013-11-19 14:09:00,
2013-11-19 08:14:00,44.3,30.5,30.18,East,81,9.0,16.0,58,0.00,,SKC,0.00,VWS V13.00,2013-11-19 14:14:00,
2013-11-19 08:19:00,44.6,30.8,30.19,NE,52,11.0,16.0,58,0.00,,SKC,0.00,VWS V13.00,2013-11-19 14:19:00,
2013-11-19 08:24:00,44.8,31.4,30.19,NE,53,7.0,16.0,59,0.00,,SKC,0.00,VWS V13.00,2013-11-19 14:24:00,
2013-11-19 08:28:00,45.1,30.4,30.19,NE,54,11.0,16.0,56,0.00,,SKC,0.00,VWS V13.00,2013-11-19 14:28:00,
2013-11-19 08:33:00,45.1,29.5,30.19,NE,42,11.0,15.0,54,0.00,,SKC,0.00,VWS V13.00,2013-11-19 14:33:00,
2013-11-19 08:38:00,45.4,29.7,30.19,NE,38,9.0,16.0,54,0.00,,SKC,0.00,VWS V13.00,2013-11-19 14:38:00,
2013-11-19 08:43:00,45.6,30.8,30.19,ENE,60,13.0,16.0,56,0.00,,SKC,0.00,VWS V13.00,2013-11-19 14:43:00,
2013-11-19 08:48:00,45.9,29.8,30.19,NE,44,9.0,18.0,53,0.00,,SKC,0.00,VWS V13.00,2013-11-19 14:48:00,
2013-11-19 08:53:00,46.0,29.4,30.19,NE,51,14.0,18.0,52,0.00,,SKC,0.00,VWS V13.00,2013-11-19 14:53:00,
2013-11-19 08:58:00,46.4,30.2,30.19,ENE,62,10.0,18.0,53,0.00,,SKC,0.00,VWS V13.00,2013-11-19 14:58:00,
2013-11-19 09:03:00,47.0,30.3,30.20,NNE,28,11.0,13.0,52,0.00,,SKC,0.00,VWS V13.00,2013-11-19 15:03:00,
2013-11-19 09:08:00,47.0,28.9,30.20,NNE,20,11.0,16.0,49,0.00,,SKC,0.00,VWS V13.00,2013-11-19 15:08:00,
2013-11-19 09:13:00,46.8,30.1,30.20,NE,49,12.0,16.0,52,0.00,,SKC,0.00,VWS V13.00,2013-11-19 15:13:00,
2013-11-19 09:18:00,46.6,29.0,30.19,ENE,59,9.0,19.0,50,0.00,,SKC,0.00,VWS V13.00,2013-11-19 15:18:00,
2013-11-19 09:23:00,46.7,29.5,30.19,NE,44,9.0,19.0,51,0.00,,SKC,0.00,VWS V13.00,2013-11-19 15:23:00,
2013-11-19 09:28:00,47.4,30.7,30.19,NE,53,9.0,19.0,52,0.00,,SKC,0.00,VWS V13.00,2013-11-19 15:28:00,
2013-11-19 09:33:00,48.4,30.1,30.19,ENE,61,8.0,13.0,49,0.00,,SKC,0.00,VWS V13.00,2013-11-19 15:33:00,
2013-11-19 09:38:00,48.4,27.5,30.19,ENE,57,13.0,16.0,44,0.00,,SKC,0.00,VWS V13.00,2013-11-19 15:38:00,
2013-11-19 09:42:00,47.6,27.3,30.20,ENE,63,8.0,16.0,45,0.00,,SKC,0.00,VWS V13.00,2013-11-19 15:42:00,
2013-11-19 09:47:00,47.5,27.8,30.20,ENE,75,11.0,16.0,46,0.00,,SKC,0.00,VWS V13.00,2013-11-19 15:47:00,
2013-11-19 09:52:00,47.5,28.3,30.19,NNE,29,7.0,16.0,47,0.00,,SKC,0.00,VWS V13.00,2013-11-19 15:52:00,
2013-11-19 09:57:00,48.0,28.8,30.19,NNE,20,8.0,16.0,47,0.00,,SKC,0.00,VWS V13.00,2013-11-19 15:57:00,
2013-11-19 10:02:00,49.4,30.0,30.18,ENE,61,9.0,14.0,47,0.00,,SKC,0.00,VWS V13.00,2013-11-19 16:02:00,
2013-11-19 10:07:00,49.9,29.4,30.18,NE,53,9.0,15.0,45,0.00,,SKC,0.00,VWS V13.00,2013-11-19 16:07:00,
2013-11-19 10:12:00,49.9,29.4,30.17,NE,35,10.0,15.0,45,0.00,,SKC,0.00,VWS V13.00,2013-11-19 16:12:00,
2013-11-19 10:17:00,49.2,27.7,30.18,NNE,13,9.0,16.0,43,0.00,,SKC,0.00,VWS V13.00,2013-11-19 16:17:00,
2013-11-19 10:22:00,48.5,28.7,30.18,NE,44,2.0,16.0,46,0.00,,SKC,0.00,VWS V13.00,2013-11-19 16:22:00,
2013-11-19 10:27:00,48.8,29.0,30.18,NE,52,7.0,16.0,46,0.00,,SKC,0.00,VWS V13.00,2013-11-19 16:27:00,
2013-11-19 10:32:00,49.9,28.9,30.17,ENE,71,12.0,13.0,44,0.00,,SKC,0.00,VWS V13.00,2013-11-19 16:32:00,
2013-11-19 10:37:00,50.2,29.7,30.18,ENE,77,10.0,16.0,45,0.00,,SKC,0.00,VWS V13.00,2013-11-19 16:37:00,
2013-11-19 10:42:00,50.6,29.0,30.17,East,86,6.0,16.0,43,0.00,,SKC,0.00,VWS V13.00,2013-11-19 16:42:00,
2013-11-19 10:47:00,50.6,29.0,30.16,NNE,31,7.0,16.0,43,0.00,,SKC,0.00,VWS V13.00,2013-11-19 16:47:00,
2013-11-19 10:52:00,50.6,29.0,30.15,ENE,60,8.0,16.0,43,0.00,,SKC,0.00,VWS V13.00,2013-11-19 16:52:00,
2013-11-19 10:57:00,50.3,29.8,30.15,NE,51,11.0,19.0,45,0.00,,SKC,0.00,VWS V13.00,2013-11-19 16:57:00,
2013-11-19 11:02:00,50.3,28.7,30.14,NE,55,10.0,13.0,43,0.00,,SKC,0.00,VWS V13.00,2013-11-19 17:02:00,
2013-11-19 11:07:00,50.9,28.1,30.14,NE,51,14.0,18.0,41,0.00,,SKC,0.00,VWS V13.00,2013-11-19 17:07:00,
2013-11-19 11:12:00,51.1,28.8,30.15,NE,54,10.0,18.0,42,0.00,,SKC,0.00,VWS V13.00,2013-11-19 17:12:00,
2013-11-19 11:17:00,51.2,28.3,30.15,ENE,59,7.0,18.0,41,0.00,,SKC,0.00,VWS V13.00,2013-11-19 17:17:00,
2013-11-19 11:22:00,52.1,27.9,30.16,ENE,64,8.0,18.0,39,0.00,,SKC,0.00,VWS V13.00,2013-11-19 17:22:00,
2013-11-19 11:27:00,52.4,28.2,30.15,NE,53,11.0,18.0,39,0.00,,SKC,0.00,VWS V13.00,2013-11-19 17:27:00,
2013-11-19 11:32:00,52.7,29.1,30.14,ENE,61,11.0,12.0,40,0.00,,SKC,0.00,VWS V13.00,2013-11-19 17:32:00,
2013-11-19 11:35:00,52.7,28.5,30.14,ENE,63,10.0,15.0,39,0.00,,SKC,0.00,VWS V13.00,2013-11-19 17:35:00,
2013-11-19 11:40:00,53.2,26.3,30.13,NE,47,10.0,19.0,35,0.00,,SKC,0.00,VWS V13.00,2013-11-19 17:40:00,
2013-11-19 11:45:00,53.2,24.9,30.13,ENE,59,11.0,21.0,33,0.00,,SKC,0.00,VWS V13.00,2013-11-19 17:45:00,
2013-11-19 11:50:00,53.7,26.0,30.13,ENE,67,11.0,21.0,34,0.00,,SKC,0.00,VWS V13.00,2013-11-19 17:50:00,
2013-11-19 11:55:00,53.4,24.3,30.13,NE,51,12.0,21.0,32,0.00,,SKC,0.00,VWS V13.00,2013-11-19 17:55:00,
2013-11-19 12:00:00,52.8,24.5,30.13,ENE,59,13.0,21.0,33,0.00,,SKC,0.00,VWS V13.00,2013-11-19 18:00:00,
2013-11-19 12:05:00,53.6,25.9,30.12,NE,51,10.0,15.0,34,0.00,,SKC,0.00,VWS V13.00,2013-11-19 18:05:00,
2013-11-19 12:10:00,54.4,23.6,30.12,NE,44,13.0,18.0,30,0.00,,SKC,0.00,VWS V13.00,2013-11-19 18:10:00,
2013-11-19 12:15:00,54.5,26.0,30.11,ENE,65,18.0,18.0,33,0.00,,SKC,0.00,VWS V13.00,2013-11-19 18:15:00,
2013-11-19 12:20:00,54.6,25.4,30.11,ENE,76,10.0,20.0,32,0.00,,SKC,0.00,VWS V13.00,2013-11-19 18:20:00,
2013-11-19 12:25:00,54.8,25.5,30.11,NE,51,18.0,22.0,32,0.00,,SKC,0.00,VWS V13.00,2013-11-19 18:25:00,
2013-11-19 12:30:00,54.8,24.8,30.11,NE,49,11.0,22.0,31,0.00,,SKC,0.00,VWS V13.00,2013-11-19 18:30:00,
2013-11-19 12:35:00,54.7,23.1,30.11,ENE,74,9.0,18.0,29,0.00,,SKC,0.00,VWS V13.00,2013-11-19 18:35:00,
2013-11-19 12:40:00,54.8,24.8,30.11,NE,38,9.0,18.0,31,0.00,,SKC,0.00,VWS V13.00,2013-11-19 18:40:00,
2013-11-19 12:45:00,55.3,24.4,30.11,NE,51,10.0,18.0,30,0.00,,SKC,0.00,VWS V13.00,2013-11-19 18:45:00,
2013-11-19 12:50:00,55.5,29.0,30.10,NNE,28,6.0,18.0,36,0.00,,SKC,0.00,VWS V13.00,2013-11-19 18:50:00,
2013-11-19 12:55:00,55.2,30.1,30.10,ENE,60,5.0,18.0,38,0.00,,SKC,0.00,VWS V13.00,2013-11-19 18:55:00,
2013-11-19 13:00:00,55.1,28.6,30.10,ENE,65,7.0,18.0,36,0.00,,SKC,0.00,VWS V13.00,2013-11-19 19:00:00,
2013-11-19 13:05:00,55.5,29.0,30.10,ENE,71,11.0,14.0,36,0.00,,SKC,0.00,VWS V13.00,2013-11-19 19:05:00,
2013-11-19 13:10:00,55.0,24.2,30.10,East,79,12.0,18.0,30,0.00,,SKC,0.00,VWS V13.00,2013-11-19 19:10:00,
2013-11-19 13:15:00,54.3,24.3,30.10,ENE,60,7.0,18.0,31,0.00,,SKC,0.00,VWS V13.00,2013-11-19 19:15:00,
2013-11-19 13:20:00,54.0,26.3,30.10,ENE,60,8.0,18.0,34,0.00,,SKC,0.00,VWS V13.00,2013-11-19 19:20:00,
2013-11-19 13:25:00,53.8,25.4,30.09,NE,49,7.0,18.0,33,0.00,,SKC,0.00,VWS V13.00,2013-11-19 19:25:00,
2013-11-19 13:30:00,53.7,25.3,30.09,NE,34,10.0,18.0,33,0.00,,SKC,0.00,VWS V13.00,2013-11-19 19:30:00,
2013-11-19 13:35:00,53.6,28.0,30.08,NNE,14,8.0,12.0,37,0.00,,SKC,0.00,VWS V13.00,2013-11-19 19:35:00,
2013-11-19 13:40:00,53.3,29.6,30.09,NNE,22,5.0,12.0,40,0.00,,SKC,0.00,VWS V13.00,2013-11-19 19:40:00,
2013-11-19 13:45:00,53.2,30.1,30.09,NE,55,6.0,12.0,41,0.00,,SKC,0.00,VWS V13.00,2013-11-19 19:45:00,
2013-11-19 13:50:00,53.3,29.6,30.09,NNE,25,2.0,12.0,40,0.00,,SKC,0.00,VWS V13.00,2013-11-19 19:50:00,
2013-11-19 13:55:00,53.6,31.1,30.09,NNE,17,4.0,12.0,42,0.00,,SKC,0.00,VWS V13.00,2013-11-19 19:55:00,
2013-11-19 14:00:00,53.6,29.9,30.09,North,350,8.0,12.0,40,0.00,,SKC,0.00,VWS V13.00,2013-11-19 20:00:00,
2013-11-19 14:05:00,53.8,30.7,30.10,NNW,346,4.0,10.0,41,0.00,,SKC,0.00,VWS V13.00,2013-11-19 20:05:00,
2013-11-19 14:10:00,54.8,31.0,30.10,NNE,24,8.0,11.0,40,0.00,,SKC,0.00,VWS V13.00,2013-11-19 20:10:00,
2013-11-19 14:15:00,55.4,30.9,30.10,North,355,5.0,11.0,39,0.00,,SKC,0.00,VWS V13.00,2013-11-19 20:15:00,
2013-11-19 14:20:00,55.4,30.9,30.10,NNE,25,5.0,11.0,39,0.00,,SKC,0.00,VWS V13.00,2013-11-19 20:20:00,
2013-11-19 14:25:00,55.2,30.1,30.10,North,5,7.0,11.0,38,0.00,,SKC,0.00,VWS V13.00,2013-11-19 20:25:00,
2013-11-19 14:30:00,55.0,29.9,30.09,NNE,12,6.0,12.0,38,0.00,,SKC,0.00,VWS V13.00,2013-11-19 20:30:00,
2013-11-19 14:35:00,54.2,29.8,30.10,North,360,5.0,12.0,39,0.00,,SKC,0.00,VWS V13.00,2013-11-19 20:35:00,
2013-11-19 14:40:00,53.2,29.5,30.09,NNE,19,4.0,12.0,40,0.00,,SKC,0.00,VWS V13.00,2013-11-19 20:40:00,
2013-11-19 14:45:00,53.5,30.4,30.09,NNW,348,9.0,12.0,41,0.00,,SKC,0.00,VWS V13.00,2013-11-19 20:45:00,
2013-11-19 14:50:00,54.0,29.6,30.10,NNE,14,8.0,12.0,39,0.00,,SKC,0.00,VWS V13.00,2013-11-19 20:50:00,
2013-11-19 14:55:00,53.5,29.2,30.10,NNE,17,4.0,12.0,39,0.00,,SKC,0.00,VWS V13.00,2013-11-19 20:55:00,
2013-11-19 15:00:00,52.9,28.0,30.10,NNE,22,4.0,12.0,38,0.00,,SKC,0.00,VWS V13.00,2013-11-19 21:00:00,
2013-11-19 15:05:00,52.5,28.9,30.09,NNE,19,6.0,7.0,40,0.00,,SKC,0.00,VWS V13.00,2013-11-19 21:05:00,
2013-11-19 15:10:00,52.6,29.6,30.09,NE,40,9.0,11.0,41,0.00,,SKC,0.00,VWS V13.00,2013-11-19 21:10:00,
2013-11-19 15:15:00,52.9,29.2,30.09,North,360,6.0,11.0,40,0.00,,SKC,0.00,VWS V13.00,2013-11-19 21:15:00,
2013-11-19 15:20:00,53.0,28.7,30.10,NE,35,7.0,11.0,39,0.00,,SKC,0.00,VWS V13.00,2013-11-19 21:20:00,
2013-11-19 15:25:00,53.0,28.1,30.10,NE,34,8.0,11.0,38,0.00,,SKC,0.00,VWS V13.00,2013-11-19 21:25:00,
2013-11-19 15:30:00,53.1,28.2,30.10,NNE,24,6.0,11.0,38,0.00,,SKC,0.00,VWS V13.00,2013-11-19 21:30:00,
2013-11-19 15:35:00,53.0,28.1,30.10,NE,45,5.0,9.0,38,0.00,,SKC,0.00,VWS V13.00,2013-11-19 21:35:00,
2013-11-19 15:40:00,52.7,28.5,30.10,NE,53,5.0,10.0,39,0.00,,SKC,0.00,VWS V13.00,2013-11-19 21:40:00,
2013-11-19 15:45:00,52.3,27.5,30.11,NE,46,8.0,11.0,38,0.00,,SKC,0.00,VWS V13.00,2013-11-19 21:45:00,
2013-11-19 15:50:00,52.1,28.5,30.11,NNE,29,8.0,11.0,40,0.00,,SKC,0.00,VWS V13.00,2013-11-19 21:50:00,
2013-11-19 15:55:00,51.9,28.4,30.11,NE,48,7.0,11.0,40,0.00,,SKC,0.00,VWS V13.00,2013-11-19 21:55:00,
2013-11-19 16:00:00,51.6,28.7,30.11,NE,51,6.0,11.0,41,0.00,,SKC,0.00,VWS V13.00,2013-11-19 22:00:00,
2013-11-19 16:05:00,51.3,29.0,30.11,NE,48,2.0,7.0,42,0.00,,SKC,0.00,VWS V13.00,2013-11-19 22:05:00,
2013-11-19 16:09:00,51.0,28.7,30.11,NE,39,6.0,8.0,42,0.00,,SKC,0.00,VWS V13.00,2013-11-19 22:09:00,
2013-11-19 16:14:00,50.8,28.5,30.11,NE,34,6.0,8.0,42,0.00,,SKC,0.00,VWS V13.00,2013-11-19 22:14:00,
2013-11-19 16:19:00,50.7,28.5,30.12,NNE,23,4.0,8.0,42,0.00,,SKC,0.00,VWS V13.00,2013-11-19 22:19:00,
2013-11-19 16:24:00,50.7,28.5,30.12,NE,39,5.0,8.0,42,0.00,,SKC,0.00,VWS V13.00,2013-11-19 22:24:00,
2013-11-19 16:29:00,50.6,28.4,30.12,NE,40,4.0,8.0,42,0.00,,SKC,0.00,VWS V13.00,2013-11-19 22:29:00,
2013-11-19 16:34:00,50.5,28.3,30.11,NE,46,4.0,7.0,42,0.00,,SKC,0.00,VWS V13.00,2013-11-19 22:34:00,
2013-11-19 16:39:00,50.2,29.1,30.12,ENE,58,4.0,7.0,44,0.00,,SKC,0.00,VWS V13.00,2013-11-19 22:39:00,
2013-11-19 16:44:00,49.9,28.9,30.13,NE,56,1.0,7.0,44,0.00,,SKC,0.00,VWS V13.00,2013-11-19 22:44:00,
2013-11-19 16:49:00,49.6,29.1,30.13,ENE,57,2.0,7.0,45,0.00,,SKC,0.00,VWS V13.00,2013-11-19 22:49:00,
2013-11-19 16:54:00,49.5,28.0,30.13,ENE,63,4.0,7.0,43,0.00,,SKC,0.00,VWS V13.00,2013-11-19 22:54:00,
2013-11-19 16:59:00,49.6,27.5,30.14,NE,53,5.0,8.0,42,0.00,,SKC,0.00,VWS V13.00,2013-11-19 22:59:00,
2013-11-19 17:04:00,49.9,27.7,30.14,ENE,70,7.0,9.0,42,0.00,,SKC,0.00,VWS V13.00,2013-11-19 23:04:00,
2013-11-19 17:09:00,50.0,27.8,30.14,ENE,78,7.0,9.0,42,0.00,,SKC,0.00,VWS V13.00,2013-11-19 23:09:00,
2013-11-19 17:14:00,50.0,27.8,30.13,ENE,67,7.0,9.0,42,0.00,,SKC,0.00,VWS V13.00,2013-11-19 23:14:00,
2013-11-19 17:19:00,49.9,28.3,30.14,ENE,69,5.0,9.0,43,0.00,,SKC,0.00,VWS V13.00,2013-11-19 23:19:00,
2013-11-19 17:24:00,49.7,28.7,30.14,ENE,69,4.0,9.0,44,0.00,,SKC,0.00,VWS V13.00,2013-11-19 23:24:00,
2013-11-19 17:29:00,49.5,28.5,30.12,ENE,66,6.0,9.0,44,0.00,,SKC,0.00,VWS V13.00,2013-11-19 23:29:00,
2013-11-19 17:34:00,49.3,27.8,30.13,ENE,69,3.0,8.0,43,0.00,,SKC,0.00,VWS V13.00,2013-11-19 23:34:00,
2013-11-19 17:39:00,49.3,27.2,30.14,NE,51,5.0,8.0,42,0.00,,SKC,0.00,VWS V13.00,2013-11-19 23:39:00,
2013-11-19 17:44:00,49.4,27.3,30.14,NE,39,4.0,8.0,42,0.00,,SKC,0.00,VWS V13.00,2013-11-19 23:44:00,
2013-11-19 17:49:00,49.4,27.3,30.14,NE,50,5.0,8.0,42,0.00,,SKC,0.00,VWS V13.00,2013-11-19 23:49:00,
2013-11-19 17:54:00,49.2,27.7,30.13,ENE,67,6.0,8.0,43,0.00,,SKC,0.00,VWS V13.00,2013-11-19 23:54:00,
2013-11-19 17:59:00,49.1,28.1,30.13,ENE,57,6.0,8.0,44,0.00,,SKC,0.00,VWS V13.00,2013-11-19 23:59:00,
2013-11-19 18:04:00,48.9,28.5,30.13,NE,55,2.0,6.0,45,0.00,,SKC,0.00,VWS V13.00,2013-11-20 00:04:00,
2013-11-19 18:09:00,48.8,28.4,30.13,ENE,61,4.0,7.0,45,0.00,,SKC,0.00,VWS V13.00,2013-11-20 00:09:00,
2013-11-19 18:14:00,48.7,28.3,30.15,NE,51,0.0,7.0,45,0.00,,SKC,0.00,VWS V13.00,2013-11-20 00:14:00,
2013-11-19 18:19:00,48.5,28.1,30.15,NE,51,0.0,7.0,45,0.00,,SKC,0.00,VWS V13.00,2013-11-20 00:19:00,
2013-11-19 18:24:00,48.3,29.0,30.15,NE,51,0.0,7.0,47,0.00,,SKC,0.00,VWS V13.00,2013-11-20 00:24:00,
2013-11-19 18:29:00,47.9,30.2,30.14,NE,51,0.0,7.0,50,0.00,,SKC,0.00,VWS V13.00,2013-11-20 00:29:00,
2013-11-19 18:34:00,47.4,29.2,30.14,ENE,78,2.0,3.0,49,0.00,,SKC,0.00,VWS V13.00,2013-11-20 00:34:00,
2013-11-19 18:39:00,47.2,29.0,30.13,ENE,57,5.0,6.0,49,0.00,,SKC,0.00,VWS V13.00,2013-11-20 00:39:00,
2013-11-19 18:44:00,47.2,29.0,30.13,ENE,69,1.0,6.0,49,0.00,,SKC,0.00,VWS V13.00,2013-11-20 00:44:00,
2013-11-19 18:49:00,47.2,28.5,30.14,ENE,69,0.0,6.0,48,0.00,,SKC,0.00,VWS V13.00,2013-11-20 00:49:00,
2013-11-19 18:54:00,47.0,28.3,30.15,ENE,69,0.0,6.0,48,0.00,,SKC,0.00,VWS V13.00,2013-11-20 00:54:00,
2013-11-19 18:59:00,46.9,29.2,30.15,ENE,69,0.0,6.0,50,0.00,,SKC,0.00,VWS V13.00,2013-11-20 00:59:00,
2013-11-19 19:04:00,46.7,29.5,30.14,ENE,69,0.0,0.0,51,0.00,,SKC,0.00,VWS V13.00,2013-11-20 01:04:00,
2013-11-19 19:09:00,46.5,29.4,30.15,ENE,69,0.0,2.0,51,0.00,,SKC,0.00,VWS V13.00,2013-11-20 01:09:00,
2013-11-19 19:14:00,46.3,29.2,30.14,ENE,69,0.0,2.0,51,0.00,,SKC,0.00,VWS V13.00,2013-11-20 01:14:00,
2013-11-19 19:19:00,46.2,30.0,30.14,ENE,76,1.0,6.0,53,0.00,,SKC,0.00,VWS V13.00,2013-11-20 01:19:00,
2013-11-19 19:24:00,46.0,29.4,30.14,East,83,1.0,6.0,52,0.00,,SKC,0.00,VWS V13.00,2013-11-20 01:24:00,
2013-11-19 19:29:00,46.0,29.4,30.14,East,83,1.0,6.0,52,0.00,,SKC,0.00,VWS V13.00,2013-11-20 01:29:00,
2013-11-19 19:34:00,46.3,28.7,30.14,East,84,1.0,2.0,50,0.00,,SKC,0.00,VWS V13.00,2013-11-20 01:34:00,
2013-11-19 19:39:00,46.4,28.8,30.14,East,86,2.0,4.0,50,0.00,,SKC,0.00,VWS V13.00,2013-11-20 01:39:00,
2013-11-19 19:44:00,46.4,29.3,30.13,East,84,5.0,5.0,51,0.00,,SKC,0.00,VWS V13.00,2013-11-20 01:44:00,
2013-11-19 19:49:00,46.4,29.3,30.13,East,80,1.0,5.0,51,0.00,,SKC,0.00,VWS V13.00,2013-11-20 01:49:00,
2013-11-19 19:54:00,46.4,28.8,30.14,East,79,2.0,5.0,50,0.00,,SKC,0.00,VWS V13.00,2013-11-20 01:54:00,
2013-11-19 19:59:00,46.3,29.2,30.14,ENE,77,2.0,5.0,51,0.00,,SKC,0.00,VWS V13.00,2013-11-20 01:59:00,
2013-11-19 20:04:00,46.1,29.9,30.14,ENE,69,0.0,4.0,53,0.00,,SKC,0.00,VWS V13.00,2013-11-20 02:04:00,
2013-11-19 20:09:00,45.8,29.2,30.14,East,82,2.0,5.0,52,0.00,,SKC,0.00,VWS V13.00,2013-11-20 02:09:00,
2013-11-19 20:14:00,45.5,28.9,30.14,ENE,72,1.0,5.0,52,0.00,,SKC,0.00,VWS V13.00,2013-11-20 02:14:00,
2013-11-19 20:19:00,45.4,29.7,30.14,ENE,71,1.0,5.0,54,0.00,,SKC,0.00,VWS V13.00,2013-11-20 02:19:00,
2013-11-19 20:24:00,45.2,29.6,30.14,ENE,76,2.0,5.0,54,0.00,,SKC,0.00,VWS V13.00,2013-11-20 02:24:00,
2013-11-19 20:29:00,44.8,28.7,30.14,ENE,76,4.0,5.0,53,0.00,,SKC,0.00,VWS V13.00,2013-11-20 02:29:00,
2013-11-19 20:34:00,44.7,28.6,30.14,East,80,3.0,4.0,53,0.00,,SKC,0.00,VWS V13.00,2013-11-20 02:34:00,
2013-11-19 20:39:00,44.6,29.0,30.14,East,90,2.0,5.0,54,0.00,,SKC,0.00,VWS V13.00,2013-11-20 02:39:00,
2013-11-19 20:44:00,44.5,28.9,30.14,East,97,3.0,5.0,54,0.00,,SKC,0.00,VWS V13.00,2013-11-20 02:44:00,
2013-11-19 20:49:00,44.3,29.2,30.13,East,101,3.0,7.0,55,0.00,,SKC,0.00,VWS V13.00,2013-11-20 02:49:00,
2013-11-19 20:54:00,44.4,29.3,30.13,East,96,2.0,7.0,55,0.00,,SKC,0.00,VWS V13.00,2013-11-20 02:54:00,
2013-11-19 20:59:00,44.5,28.9,30.13,East,86,2.0,8.0,54,0.00,,SKC,0.00,VWS V13.00,2013-11-20 02:59:00,
2013-11-19 21:04:00,44.5,28.9,30.13,East,84,2.0,4.0,54,0.00,,SKC,0.00,VWS V13.00,2013-11-20 03:04:00,
2013-11-19 21:09:00,44.6,29.0,30.13,East,84,1.0,4.0,54,0.00,,SKC,0.00,VWS V13.00,2013-11-20 03:09:00,
2013-11-19 21:14:00,44.3,30.5,30.14,ENE,77,2.0,4.0,58,0.00,,SKC,0.00,VWS V13.00,2013-11-20 03:14:00,
2013-11-19 21:19:00,44.0,29.3,30.14,ENE,77,1.0,4.0,56,0.00,,SKC,0.00,VWS V13.00,2013-11-20 03:19:00,
2013-11-19 21:24:00,43.6,30.6,30.14,ENE,77,1.0,4.0,60,0.00,,SKC,0.00,VWS V13.00,2013-11-20 03:24:00,
2013-11-19 21:29:00,42.9,30.8,30.14,ENE,77,0.0,4.0,62,0.00,,SKC,0.00,VWS V13.00,2013-11-20 03:29:00,
2013-11-19 21:34:00,42.1,30.0,30.14,ENE,77,0.0,0.0,62,0.00,,SKC,0.00,VWS V13.00,2013-11-20 03:34:00,
2013-11-19 21:39:00,41.5,29.9,30.15,ENE,77,0.0,0.0,63,0.00,,SKC,0.00,VWS V13.00,2013-11-20 03:39:00,
2013-11-19 21:44:00,41.2,30.0,30.15,ENE,77,0.0,0.0,64,0.00,,SKC,0.00,VWS V13.00,2013-11-20 03:44:00,
2013-11-19 21:49:00,40.9,29.7,30.15,ENE,77,0.0,0.0,64,0.00,,SKC,0.00,VWS V13.00,2013-11-20 03:49:00,
2013-11-19 21:54:00,40.9,29.7,30.14,ENE,77,0.0,0.0,64,0.00,,SKC,0.00,VWS V13.00,2013-11-20 03:54:00,
2013-11-19 21:59:00,40.8,30.0,30.14,ENE,77,0.0,0.0,65,0.00,,SKC,0.00,VWS V13.00,2013-11-20 03:59:00,
2013-11-19 22:04:00,40.5,29.7,30.14,ENE,77,0.0,0.0,65,0.00,,SKC,0.00,VWS V13.00,2013-11-20 04:04:00,
2013-11-19 22:09:00,40.3,29.9,30.14,ESE,102,2.0,4.0,66,0.00,,SKC,0.00,VWS V13.00,2013-11-20 04:09:00,
2013-11-19 22:14:00,40.2,29.0,30.14,East,96,1.0,4.0,64,0.00,,SKC,0.00,VWS V13.00,2013-11-20 04:14:00,
2013-11-19 22:19:00,40.0,28.8,30.14,East,97,0.0,4.0,64,0.00,,SKC,0.00,VWS V13.00,2013-11-20 04:19:00,
2013-11-19 22:24:00,40.0,28.8,30.14,East,97,0.0,4.0,64,0.00,,SKC,0.00,VWS V13.00,2013-11-20 04:24:00,
2013-11-19 22:29:00,40.0,29.9,30.14,East,97,0.0,4.0,67,0.00,,SKC,0.00,VWS V13.00,2013-11-20 04:29:00,
2013-11-19 22:34:00,39.7,29.7,30.14,East,97,0.0,0.0,67,0.00,,SKC,0.00,VWS V13.00,2013-11-20 04:34:00,
2013-11-19 22:39:00,39.4,29.0,30.15,East,97,0.0,0.0,66,0.00,,SKC,0.00,VWS V13.00,2013-11-20 04:39:00,
2013-11-19 22:44:00,39.3,28.9,30.15,East,97,0.0,0.0,66,0.00,,SKC,0.00,VWS V13.00,2013-11-20 04:44:00,
2013-11-19 22:49:00,39.2,29.2,30.14,East,97,0.0,0.0,67,0.00,,SKC,0.00,VWS V13.00,2013-11-20 04:49:00,
2013-11-19 22:54:00,39.0,29.4,30.14,East,97,0.0,0.0,68,0.00,,SKC,0.00,VWS V13.00,2013-11-20 04:54:00,
2013-11-19 22:59:00,38.5,29.6,30.14,East,97,0.0,0.0,70,0.00,,SKC,0.00,VWS V13.00,2013-11-20 04:59:00,
2013-11-19 23:01:00,38.3,29.7,30.14,East,97,0.0,0.0,71,0.00,,SKC,0.00,VWS V13.00,2013-11-20 05:01:00,
2013-11-19 23:06:00,37.9,31.0,30.14,East,97,0.0,0.0,76,0.00,,SKC,0.00,VWS V13.00,2013-11-20 05:06:00,
2013-11-19 23:11:00,37.4,30.5,30.14,East,97,0.0,0.0,76,0.00,,SKC,0.00,VWS V13.00,2013-11-20 05:11:00,
2013-11-19 23:16:00,37.0,30.1,30.14,East,97,0.0,0.0,76,0.00,,SKC,0.00,VWS V13.00,2013-11-20 05:16:00,
2013-11-19 23:21:00,36.6,30.1,30.14,East,97,0.0,0.0,77,0.00,,SKC,0.00,VWS V13.00,2013-11-20 05:21:00,
2013-11-19 23:26:00,36.5,30.0,30.14,East,97,0.0,0.0,77,0.00,,SKC,0.00,VWS V13.00,2013-11-20 05:26:00,
2013-11-19 23:31:00,36.6,29.8,30.14,East,101,1.0,4.0,76,0.00,,SKC,0.00,VWS V13.00,2013-11-20 05:31:00,
2013-11-19 23:36:00,37.0,29.5,30.14,East,96,3.0,4.0,74,0.00,,SKC,0.00,VWS V13.00,2013-11-20 05:36:00,
2013-11-19 23:41:00,37.5,29.3,30.14,East,94,2.0,5.0,72,0.00,,SKC,0.00,VWS V13.00,2013-11-20 05:41:00,
2013-11-19 23:46:00,37.9,29.4,30.14,East,91,1.0,5.0,71,0.00,,SKC,0.00,VWS V13.00,2013-11-20 05:46:00,
2013-11-19 23:51:00,38.2,29.3,30.14,East,88,0.0,5.0,70,0.00,,SKC,0.00,VWS V13.00,2013-11-20 05:51:00,
2013-11-19 23:56:00,38.3,29.4,30.14,East,88,1.0,5.0,70,0.00,,SKC,0.00,VWS V13.00,2013-11-20 05:56:00,